Powrót do katalogu

STARLINK-11725

AktywnyŁącznośćVLEO
NORAD 64125·PAYLOAD·🇺🇸 United States

Wystrzelony May 24, 2025 z Cape Canaveral Space Force Station

Loading…

Następne Przeloty (najbliższe 24 godziny)

TLE

ŚwieżeSource: CelesTrak SupGP

Epoka: Sep 14, 2026, 22:37 UTC

1 64125C 25111C   26257.94284722  .00041092  00000+0  31921-3 0  2579
2 64125  43.0004 273.1858 0001571 257.4390  68.2637 15.70814331    15

Śledź STARLINK-11725 w czasie rzeczywistym z AllMySat

Download on the App Store